Wetbulb
78.79 77.29 77.01 77.40 75.98 73.60 71.72 72.02 74.31 73.37 73.66 73.75 73.52 72.98 72.05 70.33 70.10 70.72 69.72 69.90 69.80 68.05
78.46 77.95 77.51 78.01 77.81 74.85 74.76 72.50 73.19 73.55 72.79 73.21 73.15 72.39 71.89 70.22 70.60 70.41 70.21 69.73 70.07 68.94
77.60 78.08 78.21 77.62 76.82 75.67 74.12 73.10 72.24 72.66 72.57 72.41 72.17 71.64 72.17 70.56 70.65 70.26 68.78 68.88 69.43 69.69
77.21 77.36 76.99 76.75 76.39 75.11 73.51 72.65 72.06 72.30 71.81 71.60 70.99 71.48 71.50 71.04 69.72 69.47 69.71 69.71 69.20 69.08
77.94 77.41 76.44 75.52 74.11 73.62 72.13 71.87 71.10 70.55 70.50 70.39 71.07 71.62 70.87 69.85 69.12 68.96 68.69 68.66 69.01 68.71
76.93 76.31 74.91 74.34 73.45 71.40 70.92 71.02 68.49 69.90 69.58 69.87 70.56 70.89 71.15 70.25 69.19 68.85 68.90 69.06 68.80 68.70
76.64 75.96 75.33 74.86 72.16 70.58 70.99 70.45 69.56 68.18 69.92 70.65 70.84 70.48 70.01 70.14 69.78 69.47 69.27 69.65 69.65 69.38
77.67 75.49 74.68 75.73 73.43 72.48 71.56 70.33 69.66 68.69 69.09 69.97 69.65 69.04 70.12 70.17 69.15 69.25 69.58 69.58 69.61 69.85
75.97 74.01 75.22 74.50 73.37 71.74 71.60 70.85 70.26 69.52 69.50 69.71 68.70 64.14 64.44 68.38 69.02 69.17 69.54 69.12 69.57 69.93
75.76 74.21 73.69 73.71 72.32 72.23 69.93 69.24 70.58 69.81 69.50 69.31 69.77 61.86 62.43 64.40 68.71 68.90 69.61 69.65 70.04 68.57
75.20 73.73 73.50 73.23 72.08 71.14 69.12 69.77 69.43 69.79 70.06 70.07 69.42 61.64 60.84 63.37 68.10 69.10 69.08 66.16 65.46 65.11
74.26 73.51 72.58 72.27 71.91 70.95 69.80 69.01 69.38 69.54 69.68 69.97 70.15 59.83 59.26 62.41 67.85 67.30 64.73 64.55 64.71 64.76
74.55 73.72 72.75 71.57 71.99 71.31 70.31 68.48 68.69 69.10 70.75 66.41 70.34 57.41 57.01 62.43 67.34 65.75 64.21 63.60 63.67 60.12
74.52 73.20 72.48 71.93 71.54 70.55 69.84 69.07 69.21 69.44 69.48 69.89 69.28 68.39 55.52 56.69 65.77 64.54 65.10 63.16 61.86 63.13
MSLP
1012.29 1012.74 1013.24 1013.72 1013.57 1014.05 1014.27 1015.02 1015.53 1016.24 1016.46 1016.68 1016.77 1017.04 1017.52 1017.99 1018.32 1018.26 1018.33 1018.47 1018.47 1018.05
1011.66 1012.34 1012.38 1013.02 1013.69 1013.80 1014.07 1014.55 1015.50 1015.67 1016.22 1016.69 1016.87 1017.06 1017.45 1017.59 1017.91 1018.19 1018.20 1018.03 1018.26 1018.29
1010.80 1011.58 1012.13 1012.65 1013.31 1013.52 1013.96 1014.26 1014.90 1015.54 1015.84 1016.37 1016.85 1016.97 1017.48 1017.24 1017.49 1017.90 1017.94 1017.78 1017.97 1018.20
1009.69 1010.58 1011.54 1011.87 1012.47 1012.73 1013.95 1014.44 1014.71 1014.82 1015.65 1016.28 1016.63 1016.64 1017.03 1017.15 1017.16 1017.47 1017.65 1017.70 1017.84 1017.89
1008.71 1009.62 1010.52 1010.96 1011.81 1012.53 1012.91 1013.88 1014.39 1015.42 1014.72 1015.12 1015.70 1016.28 1016.53 1016.78 1016.76 1017.24 1017.32 1017.37 1017.47 1017.53
1007.80 1008.98 1009.84 1010.42 1011.14 1012.03 1012.42 1013.26 1014.19 1013.88 1014.41 1015.23 1015.25 1015.59 1015.98 1016.15 1016.53 1016.72 1016.85 1016.59 1016.88 1016.94
1007.20 1008.02 1008.60 1009.24 1010.23 1010.93 1011.55 1012.26 1012.84 1012.77 1012.83 1014.02 1014.50 1014.99 1015.33 1015.58 1015.80 1015.99 1016.16 1016.19 1016.11 1016.23
1006.61 1007.80 1008.49 1008.63 1009.28 1009.94 1010.58 1011.26 1012.01 1012.75 1013.03 1013.76 1014.22 1014.01 1014.82 1015.02 1015.33 1015.69 1015.57 1015.61 1015.67 1015.70
1006.16 1007.26 1007.47 1008.30 1008.69 1009.48 1009.86 1010.38 1011.34 1011.88 1012.47 1013.16 1013.16 1013.55 1014.16 1014.47 1014.60 1014.89 1015.04 1014.93 1015.30 1015.33
1005.46 1006.40 1007.12 1007.69 1008.50 1008.83 1009.46 1010.34 1010.99 1011.53 1012.36 1012.40 1012.77 1013.16 1013.53 1013.87 1014.18 1014.16 1014.58 1014.87 1015.36 1015.60
1004.95 1005.66 1006.31 1006.97 1007.60 1008.30 1009.07 1009.51 1010.27 1010.92 1011.45 1011.91 1012.01 1012.51 1013.04 1013.63 1013.94 1014.00 1014.36 1014.55 1014.88 1015.57
1004.65 1005.47 1006.02 1006.62 1007.23 1008.07 1008.52 1009.11 1009.66 1010.30 1010.70 1011.08 1011.58 1011.85 1012.34 1012.97 1013.34 1013.51 1013.96 1014.17 1014.20 1014.53
1004.34 1005.22 1005.76 1006.78 1007.19 1007.22 1008.06 1008.85 1008.95 1009.34 1009.70 1010.42 1010.81 1011.50 1011.96 1012.35 1012.72 1012.98 1013.39 1013.60 1013.71 1013.88
1003.81 1004.44 1005.06 1005.60 1006.85 1007.28 1007.94 1008.55 1008.77 1008.95 1009.31 1009.69 1010.20 1010.63 1011.48 1012.10 1012.43 1012.39 1012.61 1013.11 1013.41 1013.47
Wind_Speed
16 11 11 11 8 7 6 6 8 8 7 7 7 6 5 6 6 5 6 6 6 6
14 15 11 10 10 8 7 6 7 9 8 8 8 7 7 7 6 6 6 5 6 7
16 15 13 12 12 10 10 10 11 10 9 9 8 8 9 7 7 6 6 6 6 7
16 17 14 14 14 14 11 10 10 12 8 8 10 10 10 9 8 8 8 8 8 9
17 17 17 16 15 14 14 13 11 7 7 12 13 11 10 11 9 9 9 9 9 9
18 18 19 18 16 15 14 14 11 13 12 10 12 12 12 12 9 10 11 10 10 10
18 19 20 18 19 17 17 17 17 14 12 13 14 13 14 13 12 12 12 11 11 11
15 17 18 17 18 17 19 17 13 8 10 12 13 12 14 13 11 12 12 12 11 12
16 17 18 19 18 16 17 15 12 12 12 14 11 12 12 12 12 12 12 10 11 10
16 16 18 18 18 17 18 15 12 11 13 14 14 10 14 15 13 11 9 8 8 9
16 16 16 17 19 18 17 16 13 13 12 13 12 12 13 10 11 10 6 3 1 6
14 14 15 17 17 16 15 14 12 11 13 11 15 11 17 15 12 9 7 4 4 3
12 12 12 12 12 13 14 12 12 12 11 10 14 14 16 14 8 9 6 5 6 9
12 13 10 12 10 11 12 9 12 12 8 11 11 12 15 12 9 8 8 5 4 7
Wind_Direction
211 214 214 208 232 211 211 204 157 196 201 211 193 193 190 222 244 225 243 263 281 299
205 216 209 214 206 202 194 183 189 193 199 214 208 200 197 234 223 242 238 251 254 266
202 202 204 195 200 197 180 185 179 191 188 198 207 205 216 233 218 234 252 251 262 262
199 196 191 199 195 182 187 173 178 177 176 201 213 208 220 243 257 229 239 252 256 258
192 189 194 193 186 182 170 178 175 200 165 194 211 220 219 231 242 234 243 248 250 256
194 192 193 194 178 177 168 174 180 183 190 209 205 212 217 225 230 236 243 239 243 254
192 195 200 186 179 179 177 182 198 202 181 193 197 208 219 214 220 230 238 240 241 249
197 203 206 193 184 183 184 189 206 193 195 201 214 210 215 221 219 236 240 246 247 241
192 202 206 199 196 189 192 192 193 187 205 215 216 203 195 212 222 228 242 251 262 262
195 202 209 202 200 194 199 201 209 202 214 221 227 202 193 203 225 235 251 266 282 287
192 203 203 205 201 202 206 211 212 211 227 240 237 196 206 182 221 221 226 153 17 318
193 201 200 203 205 209 205 210 211 219 229 234 240 174 168 178 207 202 202 187 193 207
186 198 201 209 215 200 207 214 219 211 216 222 239 170 174 190 204 199 198 187 186 184
180 187 187 195 209 201 209 219 215 229 234 229 226 205 181 202 192 227 227 214 217 241